When you browse on this site, cookies collect data to enhance your experience and personalize the content and advertising you see.
Visit our Privacy Policy to learn more. By continuing to use the site, you agree to this use of cookies and data.
  • In Romania
  • List of Countries
  • For 7 days
  • Water Temperature
  • Weather Map
  • Weather Widgets
  • user-avatar
    Login

    Hourly Weather Starogard Gdański

    Today, 21 August, Wednesday

    Time Temperature Precipitation Wind Pressure Humidity
    00:00 +20°C° 0 mm 1 mps 759 mmHg 56%
    01:00 +20°C° 0 mm 1 mps 759 mmHg 60%
    02:00 +18°C° 1.8 mm 2 mps 760 mmHg 70%
    03:00 +17°C° 1.8 mm 2 mps 760 mmHg 80%
    04:00 +15°C° 1.8 mm 2 mps 760 mmHg 91%
    05:00 +15°C° 0.3 mm 2 mps 760 mmHg 90%
    06:00 +15°C° 0.3 mm 1 mps 760 mmHg 89%
    07:00 +16°C° 0.3 mm 1 mps 761 mmHg 88%
    08:00 +16°C° 0.1 mm 1 mps 761 mmHg 85%
    09:00 +16°C° 0.1 mm 1 mps 761 mmHg 83%
    10:00 +18°C° 0.1 mm 1 mps 761 mmHg 80%
    11:00 +19°C° 0.2 mm 1 mps 762 mmHg 75%
    12:00 +19°C° 0.2 mm 2 mps 762 mmHg 70%
    13:00 +20°C° 0.2 mm 2 mps 762 mmHg 65%
    14:00 +21°C° 0.2 mm 2 mps 762 mmHg 62%
    15:00 +21°C° 0.2 mm 2 mps 762 mmHg 60%
    16:00 +23°C° 0.2 mm 2 mps 762 mmHg 57%
    17:00 +20°C° 0 mm 2 mps 762 mmHg 62%
    18:00 +19°C° 0 mm 2 mps 762 mmHg 67%
    19:00 +17°C° 0 mm 2 mps 762 mmHg 72%
    20:00 +16°C° 0 mm 2 mps 763 mmHg 75%
    21:00 +16°C° 0 mm 1 mps 763 mmHg 79%
    22:00 +15°C° 0 mm 1 mps 763 mmHg 82%
    23:00 +14°C° 0 mm 1 mps 763 mmHg 83%

    Tomorrow, 22 August, Thursday

    Time Temperature Precipitation Wind Pressure Humidity
    00:00 +14°C° 0 mm 1 mps 764 mmHg 83%
    01:00 +14°C° 0 mm 1 mps 764 mmHg 83%
    02:00 +14°C° 0 mm 1 mps 764 mmHg 84%
    03:00 +13°C° 0 mm 1 mps 764 mmHg 85%
    04:00 +13°C° 0 mm 1 mps 763 mmHg 86%
    05:00 +14°C° 0 mm 1 mps 764 mmHg 83%
    06:00 +15°C° 0 mm 1 mps 764 mmHg 79%
    07:00 +18°C° 0 mm 1 mps 764 mmHg 75%
    08:00 +19°C° 0 mm 1 mps 765 mmHg 67%
    09:00 +21°C° 0 mm 1 mps 765 mmHg 60%
    10:00 +23°C° 0 mm 1 mps 765 mmHg 52%
    11:00 +23°C° 0 mm 1 mps 764 mmHg 48%
    12:00 +24°C° 0 mm 1 mps 764 mmHg 44%
    13:00 +25°C° 0 mm 1 mps 764 mmHg 40%
    14:00 +25°C° 0 mm 2 mps 764 mmHg 41%
    15:00 +25°C° 0 mm 2 mps 764 mmHg 42%
    16:00 +25°C° 0 mm 2 mps 764 mmHg 42%
    17:00 +23°C° 0 mm 2 mps 763 mmHg 48%
    18:00 +21°C° 0 mm 2 mps 763 mmHg 54%
    19:00 +19°C° 0 mm 2 mps 763 mmHg 59%
    20:00 +19°C° 0 mm 2 mps 763 mmHg 62%
    21:00 +18°C° 0 mm 2 mps 763 mmHg 64%
    22:00 +17°C° 0 mm 2 mps 764 mmHg 67%
    23:00 +17°C° 0 mm 2 mps 764 mmHg 69%

    Day after tomorrow, 23 August, Friday

    Time Temperature Precipitation Wind Pressure Humidity
    00:00 +16°C° 0 mm 2 mps 764 mmHg 70%
    01:00 +16°C° 0 mm 2 mps 764 mmHg 72%
    02:00 +16°C° 0 mm 2 mps 763 mmHg 74%
    03:00 +15°C° 0 mm 2 mps 763 mmHg 76%
    04:00 +15°C° 0 mm 2 mps 763 mmHg 79%
    05:00 +16°C° 0 mm 2 mps 763 mmHg 76%
    06:00 +17°C° 0 mm 2 mps 764 mmHg 72%
    07:00 +18°C° 0 mm 2 mps 764 mmHg 69%
    08:00 +20°C° 0 mm 2 mps 764 mmHg 63%
    09:00 +22°C° 0 mm 3 mps 764 mmHg 56%
    10:00 +25°C° 0 mm 3 mps 764 mmHg 49%
    11:00 +25°C° 0 mm 3 mps 764 mmHg 46%
    12:00 +26°C° 0 mm 2 mps 764 mmHg 42%
    13:00 +27°C° 0 mm 2 mps 763 mmHg 39%
    14:00 +27°C° 0 mm 2 mps 763 mmHg 39%
    15:00 +27°C° 0 mm 2 mps 763 mmHg 39%
    16:00 +27°C° 0 mm 2 mps 763 mmHg 39%
    17:00 +25°C° 0 mm 2 mps 762 mmHg 45%
    18:00 +23°C° 0 mm 2 mps 762 mmHg 50%
    19:00 +20°C° 0 mm 2 mps 762 mmHg 56%
    20:00 +20°C° 0 mm 2 mps 762 mmHg 58%
    21:00 +19°C° 0 mm 2 mps 762 mmHg 61%
    22:00 +18°C° 0 mm 2 mps 762 mmHg 63%
    23:00 +17°C° 0 mm 2 mps 762 mmHg 65%

    24 August, Saturday

    Time Temperature Precipitation Wind Pressure Humidity
    00:00 +17°C° 0 mm 2 mps 762 mmHg 67%
    01:00 +16°C° 0 mm 1 mps 762 mmHg 70%
    02:00 +16°C° 0 mm 1 mps 762 mmHg 71%
    03:00 +16°C° 0 mm 1 mps 762 mmHg 73%
    04:00 +15°C° 0 mm 1 mps 762 mmHg 75%
    05:00 +16°C° 0 mm 1 mps 762 mmHg 71%
    06:00 +18°C° 0 mm 1 mps 761 mmHg 68%
    07:00 +20°C° 0 mm 1 mps 761 mmHg 64%
    08:00 +21°C° 0 mm 1 mps 762 mmHg 59%
    09:00 +23°C° 0 mm 2 mps 762 mmHg 53%
    10:00 +25°C° 0 mm 2 mps 762 mmHg 48%
    11:00 +26°C° 0 mm 2 mps 762 mmHg 44%
    12:00 +26°C° 0 mm 2 mps 761 mmHg 41%
    13:00 +27°C° 0 mm 2 mps 761 mmHg 37%
    14:00 +27°C° 0 mm 2 mps 761 mmHg 37%
    15:00 +27°C° 0 mm 2 mps 760 mmHg 38%
    16:00 +27°C° 0 mm 2 mps 760 mmHg 38%
    17:00 +25°C° 0 mm 2 mps 760 mmHg 45%
    18:00 +23°C° 0 mm 2 mps 760 mmHg 51%
    19:00 +20°C° 0 mm 2 mps 760 mmHg 57%
    20:00 +19°C° 0 mm 2 mps 760 mmHg 61%
    21:00 +18°C° 0 mm 2 mps 760 mmHg 64%
    22:00 +18°C° 0 mm 2 mps 760 mmHg 67%
    23:00 +18°C° 0 mm 1 mps 760 mmHg 68%

    25 August, Sunday

    Time Temperature Precipitation Wind Pressure Humidity
    00:00 +18°C° 0 mm 1 mps 760 mmHg 69%
    01:00 +16°C° 0 mm 1 mps 760 mmHg 70%
    02:00 +16°C° 0 mm 1 mps 760 mmHg 70%
    03:00 +16°C° 0 mm 1 mps 760 mmHg 71%
    04:00 +15°C° 0 mm 1 mps 760 mmHg 71%
    05:00 +16°C° 0 mm 1 mps 760 mmHg 69%
    06:00 +18°C° 0 mm 2 mps 760 mmHg 66%
    07:00 +19°C° 0 mm 2 mps 760 mmHg 63%
    08:00 +20°C° 0 mm 2 mps 761 mmHg 58%
    09:00 +22°C° 0 mm 3 mps 761 mmHg 52%
    10:00 +25°C° 0 mm 4 mps 761 mmHg 46%
    11:00 +26°C° 0 mm 4 mps 761 mmHg 44%
    12:00 +27°C° 0 mm 4 mps 760 mmHg 42%
    13:00 +27°C° 0 mm 4 mps 760 mmHg 39%
    14:00 +27°C° 0 mm 4 mps 760 mmHg 40%
    15:00 +27°C° 0 mm 4 mps 760 mmHg 42%
    16:00 +27°C° 0 mm 4 mps 759 mmHg 43%
    17:00 +25°C° 0 mm 4 mps 759 mmHg 50%
    18:00 +22°C° 0 mm 3 mps 759 mmHg 57%
    19:00 +20°C° 0 mm 3 mps 759 mmHg 65%
    20:00 +20°C° 0 mm 3 mps 759 mmHg 67%
    21:00 +19°C° 0 mm 3 mps 759 mmHg 69%
    22:00 +18°C° 0 mm 3 mps 759 mmHg 71%
    23:00 +18°C° 0 mm 3 mps 759 mmHg 73%

    26 August, Monday

    Time Temperature Precipitation Wind Pressure Humidity
    00:00 +17°C° 0 mm 2 mps 759 mmHg 74%
    01:00 +17°C° 0 mm 2 mps 759 mmHg 76%
    02:00 +16°C° 0 mm 2 mps 759 mmHg 78%
    03:00 +16°C° 0 mm 2 mps 758 mmHg 80%
    04:00 +16°C° 0 mm 2 mps 758 mmHg 81%
    05:00 +17°C° 0 mm 3 mps 758 mmHg 78%
    06:00 +18°C° 0 mm 3 mps 758 mmHg 74%
    07:00 +19°C° 0 mm 3 mps 757 mmHg 71%
    08:00 +21°C° 0 mm 3 mps 757 mmHg 66%
    09:00 +23°C° 0 mm 4 mps 757 mmHg 62%
    10:00 +26°C° 0 mm 4 mps 757 mmHg 58%
    11:00 +27°C° 0 mm 4 mps 757 mmHg 54%
    12:00 +28°C° 0 mm 4 mps 756 mmHg 51%
    13:00 +29°C° 0 mm 4 mps 756 mmHg 48%
    14:00 +29°C° 0 mm 4 mps 755 mmHg 48%
    15:00 +29°C° 0 mm 4 mps 755 mmHg 48%
    16:00 +30°C° 0 mm 4 mps 754 mmHg 48%
    17:00 +28°C° 0 mm 4 mps 754 mmHg 55%
    18:00 +26°C° 0 mm 3 mps 754 mmHg 62%
    19:00 +25°C° 0 mm 3 mps 753 mmHg 69%
    20:00 +24°C° 0.4 mm 3 mps 753 mmHg 73%
    21:00 +23°C° 0.4 mm 2 mps 753 mmHg 77%
    22:00 +23°C° 0.4 mm 2 mps 753 mmHg 81%
    23:00 +21°C° 0.2 mm 2 mps 753 mmHg 83%
    Show more